Lake Elmo, MN

6:17 PM CST on January 23, 2017 (GMT -0600)
St. Paul Lake Elmo

Weather History for K21D - December, 2013

Change the Weather History Date:

Friday, December 20, 2013

  Actual Average (KSTP) Record (KSTP)
Temperature  
Mean Temperature 18 °F -  
Max Temperature 19 °F 24 °F 41 °F (2015)
Min Temperature 17 °F 9 °F -14 °F (1996)
Degree Days  
Heating Degree Days 47    
Moisture  
Dew Point 13 °F    
Average Humidity 80    
Maximum Humidity 86    
Minimum Humidity 73    
Precipitation  
Precipitation 0.00 in - - ()
Sea Level Pressure  
Sea Level Pressure 29.94 in    
Wind  
Wind Speed 5 mph (NNE)    
Max Wind Speed 10 mph    
Max Gust Speed -    
Visibility 9 miles    
Events Snow    
Averages and records for this station are not official NWS values.
T = Trace of Precipitation, MM = Missing Value Source: NWS Daily Summary

Daily Weather History Graph

Daily Weather History Graph

Search for Another Location

Airport or City:

Trip Planner

Search our weather history database for the weather conditions in past years. The results will help you decide how hot, cold, wet, or windy it might be!

Date:

Astronomy

Dec. 20, 2013 Rise Set
Actual Time 7:46 AM CST 4:32 PM CST
Civil Twilight 7:12 AM CST 5:06 PM CST
Nautical Twilight 6:35 AM CST 5:43 PM CST
Astronomical Twilight 5:59 AM CST 6:19 PM CST
Moon 8:01 PM CST (12/20) 9:33 AM CST (12/20)
Length of Visible Light 9h 53m
Length of Day
8h 46m
Waning Gibbous, 90% of the Moon is Illuminated
Dec 20
Waning Gibbous
Dec 25
Last Quarter
Jan 1
New
Jan 7
First Quarter
Jan 15
Full

Hourly Weather History & Observations

Time (CST) Temp. Windchill Dew Point Humidity Pressure Visibility Wind Dir Wind Speed Gust Speed Precip Events Conditions
12:11 AM 19.4 °F 11.5 °F 15.8 °F 86% 30.02 in 5.0 mi NE 5.8 mph - N/A Snow Light Snow
12:31 AM 19.4 °F 10.4 °F 15.8 °F 86% 30.02 in 3.0 mi NNE 6.9 mph - N/A Snow Light Snow
12:52 AM 19.4 °F 10.4 °F 15.8 °F 86% 30.00 in 2.5 mi NE 6.9 mph - N/A Snow Light Snow
1:11 AM 19.4 °F 10.4 °F 15.8 °F 86% 30.01 in 3.0 mi NE 6.9 mph - N/A Snow Light Snow
1:31 AM 19.4 °F 11.5 °F 15.8 °F 86% 30.00 in 5.0 mi NE 5.8 mph - N/A Snow Light Snow
1:52 AM 19.4 °F 9.5 °F 14.0 °F 80% 29.99 in 7.0 mi NE 8.1 mph - N/A Snow Light Snow
2:11 AM 19.4 °F 7.9 °F 14.0 °F 80% 30.00 in 10.0 mi NE 10.4 mph - N/A Snow Light Snow
2:31 AM 19.4 °F 8.6 °F 14.0 °F 80% 29.99 in 10.0 mi NE 9.2 mph - N/A Snow Light Snow
2:52 AM 19.4 °F 8.6 °F 14.0 °F 80% 30.00 in 10.0 mi NE 9.2 mph - N/A Snow Light Snow
3:11 AM 19.4 °F 7.9 °F 14.0 °F 80% 29.99 in 10.0 mi NE 10.4 mph - N/A Snow Light Snow
3:32 AM 19.4 °F 9.5 °F 14.0 °F 80% 29.99 in 10.0 mi NE 8.1 mph - N/A Snow Light Snow
3:52 AM 17.6 °F 7.3 °F 14.0 °F 86% 29.99 in 10.0 mi NNE 8.1 mph - N/A Snow Light Snow
4:11 AM 17.6 °F 7.3 °F 14.0 °F 86% 29.99 in 10.0 mi NE 8.1 mph - N/A   Overcast
4:32 AM 17.6 °F 8.2 °F 14.0 °F 86% 29.99 in 10.0 mi NE 6.9 mph - N/A   Overcast
4:51 AM 17.6 °F 9.3 °F 12.2 °F 79% 29.99 in 10.0 mi NNE 5.8 mph - N/A   Overcast
5:12 AM 17.6 °F 9.3 °F 12.2 °F 79% 29.99 in 10.0 mi NNE 5.8 mph - N/A   Overcast
5:32 AM 17.6 °F 8.2 °F 12.2 °F 79% 29.99 in 10.0 mi NNE 6.9 mph - N/A   Overcast
5:51 AM 17.6 °F 10.7 °F 12.2 °F 79% 30.00 in 10.0 mi NNE 4.6 mph - N/A   Overcast
6:12 AM 17.6 °F 7.3 °F 12.2 °F 79% 30.01 in 10.0 mi NNE 8.1 mph - N/A   Overcast
6:32 AM 17.6 °F 7.3 °F 12.2 °F 79% 30.00 in 10.0 mi NE 8.1 mph - N/A   Overcast
6:51 AM 17.6 °F 8.2 °F 12.2 °F 79% 29.99 in 10.0 mi NE 6.9 mph - N/A   Overcast
7:12 AM 17.6 °F 7.3 °F 12.2 °F 79% 29.98 in 10.0 mi NE 8.1 mph - N/A   Overcast
7:32 AM 17.6 °F 8.2 °F 12.2 °F 79% 29.99 in 10.0 mi NE 6.9 mph - N/A   Overcast
7:51 AM 17.6 °F 8.2 °F 12.2 °F 79% 29.99 in 10.0 mi NE 6.9 mph - N/A   Overcast
8:12 AM 17.6 °F 8.2 °F 12.2 °F 79% 29.99 in 10.0 mi NE 6.9 mph - N/A   Overcast
8:31 AM 17.6 °F 8.2 °F 12.2 °F 79% 29.99 in 10.0 mi NE 6.9 mph - N/A   Overcast
8:51 AM 17.6 °F 9.3 °F 12.2 °F 79% 29.99 in 10.0 mi NNE 5.8 mph - N/A   Overcast
9:12 AM 17.6 °F 10.7 °F 12.2 °F 79% 30.00 in 10.0 mi NE 4.6 mph - N/A   Overcast
9:31 AM 17.6 °F 10.7 °F 12.2 °F 79% 29.99 in 10.0 mi NNE 4.6 mph - N/A   Overcast
9:51 AM 17.6 °F 10.7 °F 12.2 °F 79% 29.99 in 10.0 mi NE 4.6 mph - N/A   Overcast
10:12 AM 17.6 °F 9.3 °F 12.2 °F 79% 29.99 in 10.0 mi NE 5.8 mph - N/A Snow Light Snow
10:31 AM 17.6 °F 10.7 °F 12.2 °F 79% 29.98 in 10.0 mi NNE 4.6 mph - N/A   Overcast
10:51 AM 19.4 °F 12.8 °F 12.2 °F 74% 29.97 in 10.0 mi North 4.6 mph - N/A   Overcast
11:12 AM 17.6 °F 10.7 °F 12.2 °F 79% 29.96 in 10.0 mi NNW 4.6 mph - N/A   Overcast
11:31 AM 17.6 °F 9.3 °F 12.2 °F 79% 29.96 in 10.0 mi NNW 5.8 mph - N/A   Overcast
11:52 AM 17.6 °F 10.7 °F 12.2 °F 79% 29.96 in 10.0 mi NNW 4.6 mph - N/A   Overcast
12:12 PM 17.6 °F 12.3 °F 10.4 °F 73% 29.95 in 10.0 mi NNW 3.5 mph - N/A   Overcast
12:31 PM 17.6 °F - 12.2 °F 79% 29.94 in 10.0 mi Calm Calm - N/A   Overcast
12:52 PM 17.6 °F 12.3 °F 12.2 °F 79% 29.94 in 10.0 mi North 3.5 mph - N/A   Overcast
1:11 PM 17.6 °F 10.7 °F 12.2 °F 79% 29.93 in 10.0 mi North 4.6 mph - N/A   Overcast
1:32 PM 19.4 °F 14.3 °F 12.2 °F 74% 29.92 in 10.0 mi NNE 3.5 mph - N/A   Overcast
1:51 PM 19.4 °F 14.3 °F 12.2 °F 74% 29.91 in 10.0 mi North 3.5 mph - N/A   Overcast
2:11 PM 19.4 °F 14.3 °F 12.2 °F 74% 29.91 in 10.0 mi North 3.5 mph - N/A   Overcast
2:32 PM 19.4 °F 14.3 °F 12.2 °F 74% 29.90 in 10.0 mi North 3.5 mph - N/A   Overcast
2:51 PM 19.4 °F 14.3 °F 12.2 °F 74% 29.90 in 10.0 mi NNW 3.5 mph - N/A   Overcast
3:11 PM 19.4 °F 12.8 °F 12.2 °F 74% 29.91 in 10.0 mi North 4.6 mph - N/A Snow Light Snow
3:32 PM 19.4 °F 14.3 °F 12.2 °F 74% 29.90 in 7.0 mi North 3.5 mph - N/A Snow Light Snow
3:51 PM 19.4 °F 14.3 °F 14.0 °F 80% 29.90 in 7.0 mi North 3.5 mph - N/A Snow Light Snow
4:11 PM 19.4 °F - 14.0 °F 80% 29.90 in 7.0 mi Calm Calm - N/A Snow Light Snow
4:31 PM 19.4 °F - 14.0 °F 80% 29.90 in 5.0 mi Calm Calm - N/A Snow Light Snow
4:51 PM 19.4 °F - 14.0 °F 80% 29.90 in 7.0 mi Calm Calm - N/A Snow Light Snow
5:12 PM 19.4 °F - 14.0 °F 80% 29.90 in 5.0 mi Calm Calm - N/A Snow Light Snow
5:31 PM 19.4 °F - 14.0 °F 80% 29.89 in 7.0 mi Calm Calm - N/A Snow Light Snow
5:51 PM 19.4 °F - 14.0 °F 80% 29.89 in 7.0 mi Calm Calm - N/A Snow Light Snow
6:12 PM 19.4 °F - 14.0 °F 80% 29.89 in 10.0 mi Calm Calm - N/A Snow Light Snow
6:31 PM 19.4 °F - 14.0 °F 80% 29.89 in 10.0 mi Calm Calm - N/A Snow Light Snow
6:51 PM 19.4 °F - 14.0 °F 80% 29.90 in 10.0 mi Calm Calm - N/A   Overcast
7:12 PM 19.4 °F - 14.0 °F 80% 29.90 in 10.0 mi Calm Calm - N/A   Overcast
7:31 PM 19.4 °F - 14.0 °F 80% 29.89 in 10.0 mi Calm Calm - N/A Snow Light Snow
7:51 PM 19.4 °F 14.3 °F 14.0 °F 80% 29.90 in 7.0 mi NW 3.5 mph - N/A Snow Light Snow
8:12 PM 19.4 °F - 14.0 °F 80% 29.89 in 5.0 mi Calm Calm - N/A Snow Light Snow
8:31 PM 19.4 °F - 14.0 °F 80% 29.89 in 7.0 mi Calm Calm - N/A Snow Light Snow
8:51 PM 19.4 °F - 14.0 °F 80% 29.88 in 7.0 mi Calm Calm - N/A Snow Light Snow
9:12 PM 19.4 °F - 14.0 °F 80% 29.87 in 10.0 mi Calm Calm - N/A Snow Light Snow
9:31 PM 19.4 °F - 14.0 °F 80% 29.87 in 10.0 mi Calm Calm - N/A Snow Light Snow
9:51 PM 19.4 °F - 14.0 °F 80% 29.86 in 10.0 mi Calm Calm - N/A Snow Light Snow
10:12 PM 19.4 °F - 14.0 °F 80% 29.85 in 10.0 mi Calm Calm - N/A Snow Light Snow
10:31 PM 19.4 °F - 14.0 °F 80% 29.85 in 10.0 mi Calm Calm - N/A   Overcast
10:51 PM 19.4 °F - 14.0 °F 80% 29.85 in 10.0 mi Calm Calm - N/A   Overcast
11:12 PM 19.4 °F - 14.0 °F 80% 29.84 in 10.0 mi Calm Calm - N/A   Overcast
11:31 PM 19.4 °F - 14.0 °F 80% 29.86 in 10.0 mi Calm Calm - N/A   Overcast
11:52 PM 19.4 °F - 14.0 °F 80% 29.85 in 10.0 mi Calm Calm - N/A   Overcast